Home > Weather > Larnaca > Past weeks

Flag for Cyprus Past Weather in Larnaca, Cyprus — Yesterday and Last 2 Weeks

Now
72 °F

Thundershowers. Scattered clouds.


Feels Like: 76 °F
Forecast: 58 / 80 °F
Wind: 6 mph from Northeast

Location: Larnaca Airport

Current Time: May 28, 2016 at 9:14:28 PM

Latest Report: May 28, 2016 at 8:30 PM


Visibility: N/A

Pressure: 29.83 "Hg

Humidity: 57%

Dew Point: 55 °F

Location of LarnacaLocation

Past Weather in Larnaca — Graph

°F

Larnaca Temperature Yesterday

Maximum temperature yesterday: 73 °F (at 9:00 AM)
Minimum temperature yesterday: 63 °F (at 2:30 AM)
Average temperature yesterday: 69 °F

High & Low Weather Summary for the Past Weeks

 TemperatureHumidityPressure
High97 °F (May 15, 3:00 PM)100% (May 14, 1:00 AM)30.01 "Hg (May 14, 1:00 AM)
Low57 °F (May 25, 6:00 AM)23% (May 15, 3:00 PM)29.62 "Hg (May 26, 5:30 PM)
Average72 °F64%29.85 "Hg
* Reported May 13 7:00 PM — May 28 7:30 PM, Larnaca, Weather by CustomWeather, © 2016

Note: Actual official high and low records may vary slightly from our data, if they occured in-between our weather recording intervals... More about our weather records

Advertising

Larnaca Weather History for the Previous 24 Hours

Scroll right to see more
 ConditionsComfort  
Time TempWeatherWind HumidityBarometerVisibility
7:30 PM
Sat, May 28
70 °FThundershowers. Scattered clouds.12 mph69%29.83 "HgN/A
7:00 PM72 °FPassing clouds.12 mph61%29.80 "HgN/A
6:30 PM73 °FPassing clouds.13 mph61%29.80 "HgN/A
6:00 PM77 °FPassing clouds.12 mph42%29.80 "HgN/A
5:30 PM79 °FPassing clouds.9 mph37%29.77 "HgN/A
5:00 PM79 °FPassing clouds.10 mph42%29.77 "HgN/A
4:30 PM75 °FPassing clouds.13 mph54%29.80 "HgN/A
4:00 PM77 °FPassing clouds.8 mph51%29.80 "HgN/A
3:30 PM75 °FPassing clouds.13 mph44%29.80 "HgN/A
3:00 PM73 °FPassing clouds.13 mph57%29.80 "HgN/A
2:30 PM73 °FPassing clouds.14 mph61%29.80 "HgN/A
2:00 PM73 °FScattered showers. Passing clouds.12 mph69%29.80 "HgN/A
1:30 PM72 °FPassing clouds.9 mph73%29.80 "HgN/A
1:00 PM72 °FThunderstorms. Passing clouds.13 mph78%29.80 "HgN/A
12:30 PM72 °FThunderstorms. Passing clouds.13 mph73%29.80 "HgN/A
12:00 PM70 °FThunderstorms. Passing clouds.14 mph78%29.80 "HgN/A
11:30 AM72 °FThunderstorms. Passing clouds.12 mph69%29.80 "HgN/A
11:00 AM77 °FPassing clouds.13 mph57%29.80 "HgN/A
10:30 AM75 °FPassing clouds.13 mph57%29.80 "HgN/A
10:00 AM75 °FPassing clouds.12 mph57%29.80 "HgN/A
9:30 AM72 °FPassing clouds.10 mph61%29.80 "HgN/A
9:00 AM72 °FPassing clouds.8 mph69%29.80 "HgN/A
8:30 AM70 °FPassing clouds.7 mph78%29.77 "HgN/A
8:00 AM70 °FPassing clouds.3 mph78%29.77 "HgN/A
7:30 AM70 °FPassing clouds.3 mph78%29.77 "HgN/A
7:00 AM66 °FPassing clouds.3 mph78%29.77 "HgN/A
6:30 AM63 °FPassing clouds.5 mph88%29.77 "HgN/A
6:00 AM61 °FPassing clouds.5 mph88%29.77 "HgN/A
5:30 AM61 °FPassing clouds.3 mph88%29.74 "HgN/A
5:00 AM61 °FPassing clouds.6 mph88%29.74 "HgN/A
4:30 AM61 °FClear.5 mph88%29.74 "Hg10 mi
4:00 AM64 °FClear.2 mph83%29.74 "Hg10 mi
3:30 AM63 °FClear.5 mph83%29.74 "Hg10 mi
3:00 AM66 °FClear.9 mph78%29.74 "Hg10 mi
2:30 AM64 °FClear.6 mph83%29.77 "Hg10 mi
2:00 AM63 °FClear.7 mph88%29.77 "Hg10 mi
1:30 AM64 °FPassing clouds.3 mph88%29.77 "HgN/A
1:00 AM64 °FPassing clouds.No wind88%29.77 "HgN/A
12:30 AM66 °FPassing clouds.No wind83%29.77 "HgN/A
12:00 AM66 °FClear.No wind78%29.80 "Hg10 mi
11:30 PM
Fri, May 27
66 °FClear.5 mph78%29.80 "Hg10 mi
11:00 PM64 °FClear.2 mph73%29.80 "Hg10 mi
10:30 PM66 °FPassing clouds.3 mph68%29.80 "HgN/A
10:00 PM64 °FClear.5 mph68%29.80 "Hg10 mi
9:30 PM66 °FClear.6 mph64%29.80 "Hg10 mi
9:00 PM68 °FPassing clouds.5 mph64%29.80 "HgN/A
Weather by CustomWeather, © 2016

See weather overviewHow to use our weather pages